Weather History for KSLK - September, 2013

Change the Weather History Date:

Tuesday, September 3, 2013

  Actual Average Record
Temperature  
Mean Temperature 62 °F 58 °F  
Max Temperature 66 °F 71 °F - ()
Min Temperature 57 °F 46 °F - ()
Degree Days  
Heating Degree Days 3 7  
Month to date heating degree days 3 21  
Since 1 July heating degree days 216 261  
Cooling Degree Days 0 1  
Month to date cooling degree days 5 3  
Year to date cooling degree days 176 110  
Growing Degree Days 10 (Base 50)    
Moisture  
Dew Point 56 °F    
Average Humidity 87    
Maximum Humidity 100    
Minimum Humidity 73    
Precipitation  
Precipitation 0.03 in 0.11 in - ()
Month to date precipitation 1.22 0.35  
Year to date precipitation 30.10 24.89  
Sea Level Pressure  
Sea Level Pressure 29.79 in    
Wind  
Wind Speed 7 mph (WSW)    
Max Wind Speed 15 mph    
Max Gust Speed 39 mph    
Visibility 9 miles    
Events Rain    
T = Trace of Precipitation, MM = Missing Value Source: NWS Daily Summary

Daily Weather History Graph

Daily Weather History Graph

Search for Another Location

Airport or City:

Trip Planner

Search our weather history database for the weather conditions in past years. The results will help you decide how hot, cold, wet, or windy it might be!

Date:

Astronomy

Sep. 03, 2013 Rise Set
Actual Time 6:22 AM EDT 7:29 PM EDT
Civil Twilight 5:52 AM EDT 7:58 PM EDT
Nautical Twilight 5:16 AM EDT 8:34 PM EDT
Astronomical Twilight 4:38 AM EDT 9:11 PM EDT
Moon 4:31 AM EDT (9/3) 6:15 PM EDT (9/3)
Length of Visible Light 14h 06m
Length of Day
13h 06m
Waning Crescent, 3% of the Moon is Illuminated
Sep 3
Waning Crescent
Sep 5
New
Sep 12
First Quarter
Sep 19
Full
Sep 26
Last Quarter

Hourly Weather History & Observations

Time (EDT) Temp. Dew Point Humidity Pressure Visibility Wind Dir Wind Speed Gust Speed Precip Events Conditions
12:19 AM 59.0 °F 57.2 °F 94% 29.74 in 10.0 mi SSW 3.5 mph - N/A   Mostly Cloudy
12:46 AM 60.8 °F 59.0 °F 94% 29.75 in 10.0 mi Calm Calm - N/A   Overcast
12:51 AM 60.1 °F 59.0 °F 96% 29.73 in 10.0 mi Calm Calm - N/A   Overcast
1:51 AM 61.0 °F 60.1 °F 97% 29.73 in 10.0 mi SW 5.8 mph - N/A   Overcast
2:01 AM 60.8 °F 60.8 °F 100% 29.75 in 9.0 mi SW 6.9 mph - N/A   Overcast
2:11 AM 60.8 °F 60.8 °F 100% 29.75 in 10.0 mi Variable 4.6 mph - N/A   Overcast
2:21 AM 60.8 °F 59.0 °F 94% 29.75 in 10.0 mi WSW 6.9 mph - N/A   Overcast
2:51 AM 60.1 °F 57.9 °F 93% 29.74 in 10.0 mi WSW 5.8 mph - N/A   Overcast
3:13 AM 59.0 °F 55.4 °F 88% 29.76 in 10.0 mi WSW 5.8 mph - N/A   Mostly Cloudy
3:51 AM 57.9 °F 55.9 °F 93% 29.73 in 10.0 mi SW 6.9 mph - N/A   Mostly Cloudy
4:44 AM 57.2 °F 55.4 °F 94% 29.75 in 10.0 mi WSW 5.8 mph - N/A   Overcast
4:51 AM 57.9 °F 55.9 °F 93% 29.73 in 10.0 mi WSW 3.5 mph - N/A   Overcast
5:51 AM 57.9 °F 55.0 °F 90% 29.75 in 10.0 mi WSW 6.9 mph - N/A   Overcast
6:51 AM 57.9 °F 55.0 °F 90% 29.76 in 10.0 mi WSW 3.5 mph - N/A   Overcast
7:15 AM 57.2 °F 55.4 °F 94% 29.78 in 8.0 mi SW 4.6 mph - N/A   Overcast
7:31 AM 57.2 °F 55.4 °F 94% 29.78 in 9.0 mi SW 5.8 mph - N/A   Overcast
7:51 AM 57.9 °F 55.9 °F 93% 29.78 in 10.0 mi SW 5.8 mph - N/A   Overcast
8:42 AM 59.0 °F 55.4 °F 88% 29.80 in 10.0 mi SW 6.9 mph - N/A   Overcast
8:51 AM 59.0 °F 55.9 °F 90% 29.79 in 10.0 mi SW 6.9 mph - N/A   Overcast
9:03 AM 59.0 °F 55.4 °F 88% 29.80 in 8.0 mi SW 10.4 mph - N/A   Overcast
9:23 AM 60.8 °F 55.4 °F 82% 29.80 in 10.0 mi SW 8.1 mph - N/A   Overcast
9:30 AM 60.8 °F 55.4 °F 82% 29.80 in 10.0 mi WSW 6.9 mph - N/A   Overcast
9:47 AM 60.8 °F 55.4 °F 82% 29.80 in 7.0 mi SW 6.9 mph - N/A   Overcast
9:51 AM 60.1 °F 55.9 °F 86% 29.79 in 8.0 mi Variable 5.8 mph - N/A   Overcast
10:27 AM 62.6 °F 55.4 °F 77% 29.80 in 10.0 mi SW 8.1 mph - N/A   Overcast
10:39 AM 62.6 °F 55.4 °F 77% 29.79 in 10.0 mi WSW 8.1 mph - N/A   Overcast
10:51 AM 63.0 °F 55.9 °F 78% 29.78 in 10.0 mi SW 9.2 mph 34.5 mph N/A   Overcast
11:51 AM 60.1 °F 57.0 °F 90% 29.79 in 4.0 mi West 4.6 mph - 0.00 in Rain Light Rain
12:14 PM 62.6 °F 57.2 °F 82% 29.79 in 10.0 mi Variable 5.8 mph - 0.00 in   Overcast
12:51 PM 64.0 °F 55.9 °F 75% 29.77 in 10.0 mi WSW 10.4 mph 17.3 mph 0.00 in   Overcast
1:51 PM 63.0 °F 55.0 °F 75% 29.77 in 10.0 mi Variable 6.9 mph - N/A   Overcast
1:58 PM 60.8 °F 55.4 °F 82% 29.78 in 5.0 mi WSW 9.2 mph 16.1 mph 0.01 in Rain Light Rain
2:06 PM 62.6 °F 57.2 °F 82% 29.77 in 5.0 mi SW 4.6 mph - 0.01 in Rain Light Rain
2:51 PM 64.9 °F 55.9 °F 73% 29.75 in 10.0 mi WSW 8.1 mph 19.6 mph 0.02 in   Overcast
3:51 PM 61.0 °F 55.9 °F 83% 29.77 in 3.0 mi West 9.2 mph 17.3 mph 0.01 in Rain Light Rain
3:58 PM 60.8 °F 55.4 °F 82% 29.77 in 5.0 mi WSW 6.9 mph 16.1 mph 0.00 in Rain Light Rain
4:51 PM 63.0 °F 55.0 °F 75% 29.77 in 10.0 mi WSW 6.9 mph 17.3 mph 0.00 in   Overcast
5:48 PM 62.6 °F 55.4 °F 77% 29.78 in 10.0 mi WSW 8.1 mph - N/A   Overcast
5:51 PM 62.1 °F 55.0 °F 78% 29.78 in 10.0 mi WSW 9.2 mph - N/A   Overcast
6:02 PM 62.6 °F 55.4 °F 77% 29.79 in 10.0 mi WSW 8.1 mph 17.3 mph N/A   Overcast
6:51 PM 60.1 °F 55.0 °F 83% 29.79 in 10.0 mi WSW 9.2 mph - N/A   Overcast
7:51 PM 59.0 °F 55.0 °F 87% 29.81 in 9.0 mi WSW 8.1 mph - N/A   Overcast
8:33 PM 57.2 °F 55.4 °F 94% 29.82 in 10.0 mi WSW 5.8 mph - 0.00 in   Overcast
8:47 PM 57.2 °F 55.4 °F 94% 29.83 in 10.0 mi Variable 5.8 mph - 0.00 in   Overcast
8:51 PM 57.9 °F 55.9 °F 93% 29.82 in 10.0 mi West 6.9 mph - 0.00 in   Overcast
9:05 PM 57.2 °F 55.4 °F 94% 29.83 in 10.0 mi Variable 6.9 mph - N/A   Overcast
9:28 PM 57.2 °F 55.4 °F 94% 29.83 in 7.0 mi Variable 4.6 mph - N/A   Overcast
9:51 PM 57.9 °F 55.9 °F 93% 29.83 in 8.0 mi WSW 4.6 mph - N/A   Overcast
10:02 PM 57.2 °F 55.4 °F 94% 29.83 in 10.0 mi WSW 5.8 mph - N/A   Overcast
10:51 PM 57.9 °F 55.0 °F 90% 29.84 in 7.0 mi WNW 8.1 mph - 0.00 in   Overcast
11:30 PM 57.2 °F 53.6 °F 88% 29.86 in 10.0 mi Variable 6.9 mph - N/A   Overcast
11:48 PM 57.2 °F 53.6 °F 88% 29.86 in 10.0 mi Variable 4.6 mph - N/A   Overcast
11:51 PM 57.9 °F 54.0 °F 87% 29.86 in 10.0 mi Variable 4.6 mph - N/A   Overcast
11:59 PM 57.2 °F 53.6 °F 88% 29.86 in 10.0 mi Variable 4.6 mph - N/A   Overcast